Tracking 26443 objects as of 4-Dec-2022
HD Live streaming from Space Station
objects crossing your sky now

COSMOS 1408 DEB

Track COSMOS 1408 DEB now!
10-day predictions


NORAD ID: 50588
Int'l Code: 1982-092AKG
Perigee: 389.9 km
Apogee: 412.6 km
Inclination: 82.6 °
Period: 92.4 minutes
Semi major axis: 6772 km
RCS: Unknown
Launch date: September 16, 1982
Source: Commonwealth of Independent States (former USSR) (CIS)
Launch site: PLESETSK MISSILE AND SPACE COMPLEX (PKMTR)

Note: This is SATELLITE DEBRIS
aabbcc
Your satellite tracking list
Your tracking list is empty




NASA's NSSDC Master Catalog

Two Line Element Set (TLE):
1 50588U 82092AKG 22337.39112081  .00127624  00000-0  16845-2 0  9997
2 50588  82.5613  96.6456 0016724 201.0983 158.9584 15.57776991 56718
Source of the keplerian elements: AFSPC